Weather History for Billings, MT

Change the Weather History Date:

Saturday, March 31, 2012

  Actual Average Record
Temperature  
Mean Temperature 63 °F 42 °F  
Max Temperature 80 °F 53 °F 80 °F (2004)
Min Temperature 46 °F 31 °F 1 °F (1936)
Degree Days  
Heating Degree Days 2 23  
Month to date heating degree days 550 845  
Since 1 July heating degree days 5058 5810  
Cooling Degree Days 0 0  
Month to date cooling degree days 0 0  
Year to date cooling degree days 0 0  
Growing Degree Days 12 (Base 50)    
Moisture  
Dew Point 35 °F    
Average Humidity 39    
Maximum Humidity 61    
Minimum Humidity 17    
Precipitation  
Precipitation 0.00 in 0.05 in 0.26 in (1971)
Month to date precipitation 0.70 1.06  
Year to date precipitation 1.55 2.02  
Snow  
Snow 0.00 in 0.40 in 2.80 in (1971)
Month to date snowfall 5.9 10.2  
Since 1 July snowfall 34.7 44.7  
Snow Depth 0.00 in    
Sea Level Pressure  
Sea Level Pressure 29.50 in    
Wind  
Wind Speed 8 mph (West)    
Max Wind Speed 21 mph    
Max Gust Speed 35 mph    
Visibility 10 miles    
Events      
T = Trace of Precipitation, MM = Missing Value Source: NWS Daily Summary

Daily Weather History Graph

Daily Weather History Graph

Search for Another Location

Airport:

Trip Planner

Search our weather history database for the weather conditions in past years. The results will help you decide how hot, cold, wet, or windy it might be!

Date:

Astronomy

Mar. 31, 2012 Rise Set
Actual Time 6:55 AM MDT 7:42 PM MDT
Civil Twilight 6:24 AM MDT 8:12 PM MDT
Nautical Twilight 5:49 AM MDT 8:48 PM MDT
Astronomical Twilight 5:11 AM MDT 9:25 PM MDT
Moon 12:54 PM MDT (3/31) 3:13 AM MDT (3/31)
Length of Visible Light 13h 47m
Length of Day
12h 46m
First Quarter, 59% of the Moon is Illuminated
Mar 31
First Quarter
Apr 6
Full
Apr 13
Last Quarter
Apr 21
New
Apr 29
First Quarter

Hourly Weather History & Observations

Time (MDT) Temp. Dew Point Humidity Pressure Visibility Wind Dir Wind Speed Gust Speed Precip Events Conditions
12:53 AM 59.0 °F 30.9 °F 35% 29.62 in 10.0 mi WSW 11.5 mph - N/A   Clear
1:53 AM 57.0 °F 32.0 °F 39% 29.63 in 10.0 mi WSW 12.7 mph - N/A   Clear
2:53 AM 59.0 °F 32.0 °F 36% 29.62 in 10.0 mi West 12.7 mph - N/A   Clear
3:53 AM 55.9 °F 33.1 °F 42% 29.64 in 10.0 mi SW 10.4 mph - N/A   Clear
4:53 AM 53.1 °F 33.1 °F 47% 29.64 in 10.0 mi WSW 6.9 mph - N/A   Partly Cloudy
5:53 AM 48.9 °F 34.0 °F 56% 29.66 in 10.0 mi NNE 9.2 mph - N/A   Partly Cloudy
6:53 AM 46.9 °F 33.1 °F 59% 29.66 in 10.0 mi North 6.9 mph - N/A   Partly Cloudy
7:53 AM 48.9 °F 35.1 °F 59% 29.66 in 10.0 mi NW 3.5 mph - N/A   Partly Cloudy
8:53 AM 53.1 °F 35.1 °F 50% 29.62 in 10.0 mi NNE 3.5 mph - N/A   Partly Cloudy
9:53 AM 55.0 °F 36.0 °F 49% 29.62 in 10.0 mi Calm Calm - N/A   Partly Cloudy
10:53 AM 64.0 °F 35.1 °F 34% 29.57 in 10.0 mi Calm Calm - N/A   Partly Cloudy
11:53 AM 66.9 °F 37.9 °F 34% 29.54 in 10.0 mi ENE 6.9 mph - N/A   Partly Cloudy
12:53 PM 68.0 °F 37.9 °F 33% 29.50 in 10.0 mi ENE 5.8 mph - N/A   Scattered Clouds
1:53 PM 73.0 °F 36.0 °F 26% 29.47 in 10.0 mi SE 5.8 mph - N/A   Mostly Cloudy
2:53 PM 75.9 °F 33.1 °F 21% 29.40 in 10.0 mi SSW 15.0 mph 23.0 mph N/A   Mostly Cloudy
3:53 PM 79.0 °F 34.0 °F 20% 29.37 in 10.0 mi West 12.7 mph 23.0 mph N/A   Scattered Clouds
4:53 PM 78.1 °F 30.9 °F 18% 29.35 in 10.0 mi West 19.6 mph 34.5 mph N/A   Scattered Clouds
5:53 PM 77.0 °F 32.0 °F 19% 29.36 in 10.0 mi West 12.7 mph - N/A   Partly Cloudy
6:53 PM 72.0 °F 34.0 °F 25% 29.37 in 10.0 mi West 6.9 mph - N/A   Partly Cloudy
7:53 PM 66.9 °F 36.0 °F 32% 29.38 in 10.0 mi Calm Calm - N/A   Partly Cloudy
8:53 PM 64.9 °F 37.0 °F 36% 29.37 in 10.0 mi NE 5.8 mph - N/A   Clear
9:53 PM 63.0 °F 37.0 °F 38% 29.35 in 10.0 mi NE 5.8 mph - N/A   Clear
10:53 PM 61.0 °F 37.0 °F 41% 29.33 in 10.0 mi SSW 6.9 mph - N/A   Clear
11:53 PM 63.0 °F 36.0 °F 37% 29.29 in 10.0 mi East 3.5 mph - N/A   Clear